Weather History for Beach, ND

Change the Weather History Date:

Thursday, February 21, 2013

  Actual Average (KGDV) Record (KGDV)
Temperature  
Mean Temperature 17 °F -  
Max Temperature 26 °F 31 °F 51 °F (1998)
Min Temperature 8 °F 12 °F -18 °F (2011)
Degree Days  
Heating Degree Days 48    
Moisture  
Dew Point 16 °F    
Average Humidity 86    
Maximum Humidity 100    
Minimum Humidity 74    
Precipitation  
Precipitation 0.03 in - - ()
Sea Level Pressure  
Sea Level Pressure 29.96 in    
Wind  
Wind Speed 7 mph (SSE)    
Max Wind Speed 14 mph    
Max Gust Speed -    
Visibility 10 miles    
Events Rain , Snow    
Averages and records for this station are not official NWS values.
T = Trace of Precipitation, MM = Missing Value Source: NWS Daily Summary

Daily Weather History Graph

Daily Weather History Graph

Search for Another Location

Airport:

Trip Planner

Search our weather history database for the weather conditions in past years. The results will help you decide how hot, cold, wet, or windy it might be!

Date:

Astronomy

Feb. 21, 2013 Rise Set
Actual Time 6:49 AM MST 5:30 PM MST
Civil Twilight 6:18 AM MST 6:01 PM MST
Nautical Twilight 5:43 AM MST 6:36 PM MST
Astronomical Twilight 5:08 AM MST 7:11 PM MST
Moon 1:37 PM MST (2/21) 4:06 AM MST (2/21)
Length of Visible Light 11h 42m
Length of Day
10h 40m
Waxing Gibbous, 84% of the Moon is Illuminated
Feb 21
Waxing Gibbous
Feb 25
Full
Mar 4
Last Quarter
Mar 11
New
Mar 19
First Quarter

Hourly Weather History & Observations

Time (MST) Temp. Windchill Dew Point Humidity Pressure Visibility Wind Dir Wind Speed Gust Speed Precip Events Conditions
12:15 AM 12.2 °F 2.9 °F 8.6 °F 85% 29.94 in 10.0 mi ESE 5.8 mph - N/A   Partly Cloudy
12:35 AM 10.4 °F 2.2 °F 8.6 °F 92% 29.94 in 10.0 mi ESE 4.6 mph - N/A   Partly Cloudy
12:55 AM 10.4 °F -0.4 °F 8.6 °F 92% 29.94 in 10.0 mi ESE 6.9 mph - N/A   Clear
1:15 AM 10.4 °F 0.8 °F 8.6 °F 92% 29.95 in 10.0 mi ESE 5.8 mph - N/A   Partly Cloudy
1:35 AM 10.4 °F -0.4 °F 8.6 °F 92% 29.95 in 10.0 mi SE 6.9 mph - N/A   Scattered Clouds
1:55 AM 10.4 °F -1.5 °F 8.6 °F 92% 29.95 in 10.0 mi SE 8.1 mph - N/A   Scattered Clouds
2:15 AM 10.4 °F -3.3 °F 8.6 °F 92% 29.95 in 10.0 mi SE 10.4 mph - N/A   Scattered Clouds
2:35 AM 10.4 °F -1.5 °F 8.6 °F 92% 29.95 in 10.0 mi SE 8.1 mph - N/A   Scattered Clouds
2:55 AM 10.4 °F -2.4 °F 8.6 °F 92% 29.95 in 10.0 mi SE 9.2 mph - N/A   Partly Cloudy
3:15 AM 10.4 °F -1.5 °F 8.6 °F 92% 29.95 in 10.0 mi SSE 8.1 mph - N/A   Mostly Cloudy
3:35 AM 10.4 °F 0.8 °F 8.6 °F 92% 29.95 in 10.0 mi SSE 5.8 mph - N/A   Overcast
3:55 AM 10.4 °F 0.8 °F 8.6 °F 92% 29.95 in 10.0 mi SE 5.8 mph - N/A   Overcast
4:15 AM 10.4 °F 4.0 °F 8.6 °F 92% 29.95 in 10.0 mi SSE 3.5 mph - N/A   Overcast
4:55 AM 10.4 °F 2.2 °F 6.8 °F 85% 29.95 in 10.0 mi SSE 4.6 mph - N/A   Overcast
5:15 AM 8.6 °F 2.0 °F 6.8 °F 92% 29.96 in 10.0 mi SSE 3.5 mph - N/A   Overcast
5:35 AM 10.4 °F 4.0 °F 8.6 °F 92% 29.97 in 10.0 mi South 3.5 mph - N/A   Overcast
5:55 AM 10.4 °F 2.2 °F 8.6 °F 92% 29.97 in 10.0 mi SSE 4.6 mph - N/A   Overcast
6:15 AM 14.0 °F 6.5 °F 10.4 °F 86% 29.97 in 10.0 mi SSE 4.6 mph - N/A   Overcast
6:35 AM 14.0 °F 6.5 °F 12.2 °F 93% 29.97 in 10.0 mi SE 4.6 mph - N/A   Overcast
6:55 AM 15.8 °F 7.2 °F 12.2 °F 86% 29.97 in 10.0 mi SE 5.8 mph - N/A   Overcast
7:15 AM 15.8 °F 7.2 °F 14.0 °F 93% 29.97 in 10.0 mi SE 5.8 mph - N/A   Overcast
7:35 AM 15.8 °F 8.6 °F 14.0 °F 93% 29.98 in 10.0 mi SE 4.6 mph - N/A   Overcast
7:55 AM 15.8 °F 6.1 °F 14.0 °F 93% 29.99 in 10.0 mi SSE 6.9 mph - 0.02 in Snow Light Snow
8:15 AM 17.6 °F 7.3 °F 15.8 °F 93% 29.99 in 10.0 mi SE 8.1 mph - 0.01 in Snow Light Snow
8:35 AM 17.6 °F 5.7 °F 15.8 °F 93% 30.00 in 10.0 mi SSE 10.4 mph - 0.01 in Rain Light Freezing Rain
8:55 AM 19.4 °F 8.6 °F 15.8 °F 86% 30.00 in 10.0 mi SSE 9.2 mph - 0.01 in   Overcast
9:15 AM 19.4 °F 7.2 °F 17.6 °F 93% 30.00 in 10.0 mi SSE 11.5 mph - N/A   Overcast
9:35 AM 19.4 °F 6.6 °F 17.6 °F 93% 30.00 in 10.0 mi SSE 12.7 mph - N/A   Overcast
9:55 AM 19.4 °F 6.0 °F 17.6 °F 93% 29.99 in 10.0 mi SSE 13.8 mph - N/A   Overcast
10:15 AM 21.2 °F 8.3 °F 17.6 °F 86% 29.99 in 10.0 mi SSE 13.8 mph - N/A   Overcast
10:35 AM 21.2 °F 10.1 °F 17.6 °F 86% 29.99 in 10.0 mi South 10.4 mph - N/A   Overcast
10:55 AM 23.0 °F 12.4 °F 17.6 °F 80% 29.99 in 10.0 mi South 10.4 mph - N/A   Overcast
11:15 AM 23.0 °F 13.1 °F 19.4 °F 86% 29.99 in 10.0 mi South 9.2 mph - N/A   Overcast
11:35 AM 23.0 °F 13.9 °F 19.4 °F 86% 29.99 in 10.0 mi South 8.1 mph - N/A   Overcast
11:55 AM 23.0 °F 15.8 °F 19.4 °F 86% 29.99 in 10.0 mi SSE 5.8 mph - N/A   Overcast
12:15 PM 24.8 °F 16.1 °F 19.4 °F 80% 29.98 in 10.0 mi SSE 8.1 mph - N/A   Overcast
12:35 PM 24.8 °F 14.6 °F 19.4 °F 80% 29.98 in 10.0 mi SSE 10.4 mph - N/A   Overcast
12:55 PM 24.8 °F 15.3 °F 19.4 °F 80% 29.98 in 10.0 mi SE 9.2 mph - N/A   Overcast
1:15 PM 24.8 °F 15.3 °F 19.4 °F 80% 29.97 in 10.0 mi SSE 9.2 mph - N/A   Overcast
1:35 PM 24.8 °F 16.9 °F 19.4 °F 80% 29.97 in 10.0 mi SE 6.9 mph - N/A   Overcast
1:55 PM 26.6 °F 18.2 °F 19.4 °F 74% 29.96 in 10.0 mi South 8.1 mph - N/A   Overcast
2:15 PM 26.6 °F 17.5 °F 19.4 °F 74% 29.96 in 10.0 mi SSE 9.2 mph - N/A   Overcast
2:35 PM 26.6 °F 19.1 °F 19.4 °F 74% 29.96 in 10.0 mi SSE 6.9 mph - N/A   Overcast
2:55 PM 26.6 °F 18.2 °F 19.4 °F 74% 29.96 in 10.0 mi SSE 8.1 mph - N/A   Overcast
3:15 PM 26.6 °F 17.5 °F 19.4 °F 74% 29.96 in 10.0 mi SE 9.2 mph - N/A   Overcast
3:35 PM 26.6 °F 17.5 °F 19.4 °F 74% 29.95 in 10.0 mi SSE 9.2 mph - N/A   Overcast
3:55 PM 26.6 °F 19.1 °F 19.4 °F 74% 29.95 in 10.0 mi SSE 6.9 mph - N/A   Overcast
4:15 PM 26.6 °F 18.2 °F 19.4 °F 74% 29.95 in 10.0 mi SSE 8.1 mph - N/A   Overcast
4:35 PM 26.6 °F 20.0 °F 19.4 °F 74% 29.95 in 10.0 mi South 5.8 mph - N/A   Overcast
4:55 PM 26.6 °F 18.2 °F 19.4 °F 74% 29.95 in 10.0 mi SSE 8.1 mph - N/A   Overcast
5:15 PM 26.6 °F 20.0 °F 19.4 °F 74% 29.95 in 10.0 mi SSE 5.8 mph - N/A   Overcast
5:35 PM 24.8 °F 17.9 °F 19.4 °F 80% 29.95 in 10.0 mi SSE 5.8 mph - N/A   Overcast
5:55 PM 24.8 °F 16.9 °F 19.4 °F 80% 29.94 in 10.0 mi SE 6.9 mph - N/A   Overcast
6:15 PM 24.8 °F 17.9 °F 21.2 °F 86% 29.94 in 10.0 mi SE 5.8 mph - N/A   Overcast
6:35 PM 24.8 °F 16.9 °F 21.2 °F 86% 29.94 in 10.0 mi SE 6.9 mph - N/A   Overcast
6:55 PM 24.8 °F 16.1 °F 21.2 °F 86% 29.94 in 10.0 mi SSE 8.1 mph - N/A   Overcast
7:15 PM 24.8 °F 15.3 °F 21.2 °F 86% 29.94 in 10.0 mi SE 9.2 mph - N/A   Overcast
7:35 PM 24.8 °F 16.1 °F 21.2 °F 86% 29.95 in 10.0 mi SSE 8.1 mph - N/A   Overcast
7:55 PM 24.8 °F 14.6 °F 19.4 °F 80% 29.95 in 10.0 mi SSE 10.4 mph - N/A   Overcast
8:15 PM 24.8 °F 14.0 °F 19.4 °F 80% 29.94 in 10.0 mi SSE 11.5 mph - N/A   Overcast
8:35 PM 23.0 °F 12.4 °F 19.4 °F 86% 29.94 in 10.0 mi SSE 10.4 mph - N/A   Overcast
8:55 PM 23.0 °F 11.1 °F 19.4 °F 86% 29.94 in 10.0 mi SSE 12.7 mph - N/A   Overcast
9:15 PM 23.0 °F 11.1 °F 19.4 °F 86% 29.94 in 10.0 mi SSE 12.7 mph - N/A   Overcast
9:35 PM 23.0 °F 11.1 °F 19.4 °F 86% 29.94 in 10.0 mi SSE 12.7 mph - N/A   Overcast
9:55 PM 23.0 °F 10.6 °F 19.4 °F 86% 29.94 in 10.0 mi SSE 13.8 mph - N/A   Overcast
10:15 PM 23.0 °F 11.7 °F 19.4 °F 86% 29.94 in 10.0 mi SSE 11.5 mph - N/A   Overcast
10:35 PM 23.0 °F 11.1 °F 19.4 °F 86% 29.93 in 10.0 mi SSE 12.7 mph - N/A   Overcast
10:55 PM 21.2 °F 10.9 °F 19.4 °F 93% 29.93 in 10.0 mi SSE 9.2 mph - N/A   Overcast
11:15 PM 19.4 °F 8.6 °F 17.6 °F 93% 29.92 in 10.0 mi SSE 9.2 mph - N/A   Overcast
11:55 PM 17.6 °F 7.3 °F 17.6 °F 100% 29.92 in 10.0 mi SSE 8.1 mph - N/A   Overcast